CZ-3A DEB, 35557

Orbit data source: Space-Track

CZ-3A DEB, 35557 is space debris in HEO originally from a launch on Fri, 02 Feb 2007 UTC launched from the Xichang Space Center, China (XSC). Debris objects in space refer to the collection of defunct objects orbiting the Earth. Examples of debris include non-operational satellites, rocket bodies, and fragments generated from explosions, collisions, or faulty payload assembly.

Loading next visibility...
Identifier
35557, 2007-003R
Orbit
HEO
Country
Flag of CNCN / PRC
Related business
Manufacturer
Unknown
Mission
Spacecraft
Bus & Motor
Unknown
Mass
Unknown
Launch date (UTC)
2007-02-02 (19 years ago)
Launch vehicle
Unknown
Launch site
Xichang Space Center, China (XSC)
Object type
Payload
Rocket body
Debris
Shape & HBR
Unknown shape, 0.3 m
Radar Cross Section
Medium (>0.1 m² and <1 m²)

Expand to show TLE details & history
Last TLE update: 2 days ago

TLE from 2 days ago
0 CZ-3A DEB
1 35557U 07003R   26124.02866710  .00019485  00000-0  17153-1 0  9995
2 35557  23.1616 115.3368 6391687 269.8746  22.1942  3.39829729 21022
Epoch: 2026-05-04T00:41Z
TLE epoch observation values (Epoch: 2026-05-04T00:41:16.837Z)
Latitude
-0.00017°
Longitude
-116.93981°
Altitude
4,676.791 km
Speed
7.126 km/s
True Right ascension
07h 41m 12s
True Declination
0° 00' 01"
Sunlit
Object was in daylight at epoch
Visualization orbit readout
Latitude
Unknown
Longitude
Unknown
Altitude
Unknown
Speed
Unknown
Apparent Right ascension
Unknown
Apparent Declination
Unknown
Sunlit
N/A
Visualization observer readout
Local Sidereal Time
18:23:25
Azimuth
Unknown
Elevation
Unknown
Doppler factor
Unknown
Orbital elements
Apogee altitude
24,261.055 km
Perigee altitude
366.489 km
Semi-major axis
18,691.909 km
Eccentricity
0.63917
Inclination
23.1616°
RAAN
115.3368°
Arg. of periapsis
269.8746°
True anomaly
90.19427°
Mean anomaly
22.1942°
Eccentric anomaly
50.41971°
Mean motion
0.8493 °/min
Orbital period
423.88 mins
BSTAR
0.017153
Loading maneuver chart data...
Computing Atmospheric mass density...
Loading historical data...
Loading historical data...
Loading historical data...
Loading historical data...
Loading historical data...
Loading historical data...
Loading historical data...

Documentation

Showing up to 5 results
|